Theta_e
343 343 343 341 340 336 335 336 338 338 338 339 339 335 329 326 327 329 331 332 333 332 333 334 334 331 328 328 330 332 334 334 334 334 333 332 331 331 332 332 332 333
343 344 343 341 340 338 335 335 337 338 338 339 340 337 332 327 327 327 329 331 332 332 331 332 333 331 327 326 327 330 332 334 334 335 335 334 333 333 333 333 333 334
343 343 342 340 339 338 336 335 337 338 338 339 340 338 333 328 326 326 327 330 332 332 331 330 331 330 327 325 325 327 331 333 334 335 335 335 335 335 335 335 336 337
341 341 339 337 337 337 337 337 337 338 339 339 339 337 333 328 326 326 326 328 330 331 331 330 330 330 328 326 325 326 329 332 334 335 335 336 336 336 337 337 338 337
337 337 336 336 336 336 337 337 337 338 339 339 337 336 333 328 326 326 325 327 329 329 330 329 329 330 329 328 326 327 329 331 333 334 335 337 337 337 338 338 338 338
333 335 335 335 336 336 336 336 337 338 339 339 337 335 333 329 326 325 325 325 327 328 329 329 330 330 330 330 328 328 329 331 333 334 335 337 337 337 338 338 338 339
330 331 332 334 336 335 334 333 332 332 335 338 338 336 335 331 326 325 325 325 326 327 328 328 329 330 331 331 330 329 330 331 333 334 336 337 337 338 338 338 339 338
331 330 330 333 335 333 333 332 329 326 329 334 336 335 335 332 326 324 325 325 325 326 326 327 328 329 331 331 331 330 330 332 333 334 335 336 337 337 338 338 338 337
333 332 330 331 333 331 330 332 332 330 331 333 332 332 332 329 325 324 325 325 324 324 325 325 326 327 329 330 330 331 331 332 333 334 335 336 337 337 338 338 337 337
333 334 332 332 331 329 329 331 332 333 334 334 333 330 329 327 326 326 326 325 324 324 324 324 325 325 327 329 330 331 331 332 333 334 335 336 337 338 338 338 337 337
332 333 333 332 330 327 328 330 331 332 333 334 334 332 328 327 328 328 327 326 326 326 326 325 325 325 326 327 329 330 331 332 333 334 335 336 337 339 339 338 338 337
333 333 332 331 330 328 328 329 330 330 330 331 333 332 329 327 329 329 329 329 327 325 326 326 325 326 328 329 329 330 330 331 332 334 335 336 337 338 339 339 338 337
332 333 335 332 329 328 329 330 330 329 329 330 330 332 331 329 329 330 331 332 328 323 323 325 325 326 328 330 331 331 330 331 331 332 334 336 337 338 339 339 338 337
332 332 334 333 329 328 329 330 331 331 331 331 330 330 330 330 330 332 333 333 330 327 326 326 326 327 329 331 332 334 333 332 332 332 333 335 336 338 339 339 338 338
334 332 331 330 329 329 330 331 332 333 332 332 330 326 325 328 330 332 334 333 331 329 329 329 328 329 331 332 335 338 336 334 333 333 333 335 336 338 339 339 338 338
333 331 330 329 327 329 330 331 332 335 335 332 329 326 325 328 330 332 334 332 330 329 330 331 330 331 332 333 337 340 339 336 335 334 334 335 337 338 339 339 338 338
330 329 330 329 328 329 331 331 333 336 337 333 327 327 327 327 329 331 332 330 329 329 329 330 331 333 336 337 339 342 341 338 336 335 335 337 338 339 339 339 339 339
332 332 330 328 328 329 329 330 333 337 338 334 327 325 326 326 326 327 327 327 329 330 329 329 329 332 336 339 340 342 343 342 339 336 336 338 339 340 339 339 339 339
331 331 329 327 331 334 334 334 337 338 338 334 328 325 325 326 326 326 326 328 329 330 331 330 328 330 334 337 340 343 344 344 342 339 337 337 339 340 339 339 339 338
331 329 326 325 330 335 336 336 338 340 337 335 331 327 326 327 327 327 327 329 330 331 332 330 329 329 330 333 338 342 344 344 344 342 339 338 339 339 339 339 339 338
335 332 326 323 325 328 329 329 335 339 338 336 334 331 329 328 327 326 327 329 331 332 330 328 326 326 328 334 338 339 341 343 344 343 341 339 339 339 339 339 339 337
335 331 326 325 323 325 324 326 334 339 337 333 334 334 332 328 326 328 330 331 333 334 332 329 326 325 328 333 334 334 337 341 343 344 343 340 339 339 339 340 339 337
329 328 328 326 325 329 331 333 338 339 332 328 332 335 335 331 326 326 329 330 333 335 334 332 329 328 329 331 329 328 333 340 343 343 342 339 339 340 340 340 339 337
323 327 330 328 328 333 337 339 341 337 329 327 330 332 335 336 330 324 323 325 328 331 332 330 327 326 328 331 331 329 333 339 343 342 338 336 338 340 340 340 339 338
323 328 331 331 333 337 339 339 337 330 325 328 331 332 336 338 334 326 321 320 321 324 327 327 326 324 324 328 332 333 336 341 343 341 338 337 338 340 341 341 340 338
330 334 337 338 337 336 335 333 328 325 328 333 335 334 334 334 330 324 319 317 316 318 321 324 325 325 324 325 329 335 339 342 343 340 339 339 338 338 341 341 340 338
Wind_Speed
44 45 44 43 38 34 32 32 33 33 32 31 31 28 24 24 25 24 23 23 23 24 23 21 19 20 24 27 28 26 23 22 20 19 18 16 16 17 17 19 19 21
44 45 45 43 40 35 32 32 35 35 33 33 32 28 24 24 25 24 23 22 22 23 23 22 21 20 22 26 28 27 24 22 21 20 19 17 17 17 18 19 19 20
43 44 44 43 41 37 33 33 34 35 35 34 33 29 25 25 26 25 24 23 23 23 22 22 22 21 22 24 27 28 26 24 22 21 20 19 18 19 19 19 19 19
41 42 42 42 40 38 35 34 35 35 36 35 33 30 27 26 27 26 25 25 24 23 23 22 22 22 23 24 26 28 28 27 25 24 23 21 20 20 20 19 20 20
41 41 42 42 41 38 37 37 36 36 36 36 33 31 29 28 28 28 26 26 26 25 23 23 23 23 23 24 26 28 28 28 27 26 25 23 21 20 20 20 20 22
42 41 41 42 41 39 39 38 36 36 37 37 35 33 31 29 29 29 28 27 27 26 25 25 24 24 25 25 26 28 28 28 28 27 26 23 21 20 19 20 21 22
44 42 41 42 41 40 39 35 31 31 35 37 37 36 34 32 30 30 30 29 27 26 26 25 25 25 25 26 27 28 28 28 28 28 27 24 22 21 21 20 21 22
45 45 43 42 41 40 40 36 31 30 33 35 36 36 35 32 30 31 31 29 27 26 26 25 25 26 26 27 28 29 29 29 29 28 27 25 23 23 22 21 21 21
45 47 45 44 41 40 41 39 36 35 35 35 34 33 34 32 31 31 31 28 26 26 26 26 26 26 27 28 28 29 29 29 29 29 28 26 24 23 22 21 21 19
45 47 47 45 41 40 40 39 38 38 37 35 33 32 33 33 33 32 31 28 26 26 26 26 26 26 27 28 28 29 29 29 29 29 28 26 25 23 22 22 21 19
46 47 48 47 42 40 41 39 37 38 37 35 34 33 33 34 34 34 32 28 26 26 25 25 26 27 28 28 28 28 29 30 30 29 28 26 25 23 22 22 21 20
46 48 49 48 42 41 43 40 37 37 36 35 34 34 33 34 34 35 34 29 25 26 30 31 28 28 28 28 27 28 28 30 30 29 28 27 25 24 23 22 21 20
47 50 50 47 42 42 43 42 40 40 38 35 35 35 34 33 34 36 36 32 28 30 39 41 35 31 31 29 27 27 28 28 29 29 28 27 26 24 23 22 21 21
46 49 48 45 42 43 44 43 43 43 40 37 36 34 32 32 32 33 33 30 29 33 38 40 36 34 34 31 29 27 26 26 27 28 28 28 27 25 23 22 21 21
43 46 47 45 44 44 43 42 41 41 39 38 36 33 31 30 29 29 28 27 27 30 32 34 35 36 35 32 30 27 25 25 26 27 28 28 27 26 23 22 21 20
44 45 46 46 45 44 42 40 39 39 39 38 36 34 33 31 29 29 29 27 26 27 29 31 34 36 35 33 31 27 23 24 25 26 28 28 27 26 23 21 21 20
47 47 46 45 44 43 41 39 38 39 40 37 36 35 34 32 31 31 29 27 26 27 27 29 31 33 33 32 30 25 22 22 23 24 26 26 25 24 22 21 20 20
45 45 43 40 40 40 40 39 38 39 40 38 36 35 32 31 31 31 29 28 27 27 28 28 29 31 31 30 28 25 22 21 21 23 24 25 23 22 21 21 20 21
46 44 41 37 35 33 34 36 38 40 41 39 36 33 30 29 29 28 28 28 28 28 28 27 27 29 29 29 29 26 23 22 21 22 23 24 22 21 21 21 21 21
47 46 44 41 36 31 30 33 37 41 42 40 37 33 31 29 27 26 26 26 27 27 26 25 26 28 29 30 29 27 25 24 23 22 23 24 23 21 21 22 21 21
44 43 44 46 44 40 37 36 39 41 40 38 36 34 32 29 25 23 23 24 24 24 23 23 24 25 28 29 28 26 25 25 25 25 24 24 23 22 22 22 21 22
42 39 39 41 41 39 37 39 42 42 37 35 35 32 29 26 22 20 20 21 22 23 22 22 22 23 25 26 25 26 26 26 28 30 28 25 24 23 23 22 22 22
41 38 36 36 35 33 34 38 42 42 37 34 34 31 28 24 21 19 18 19 21 22 22 21 20 21 23 23 24 26 27 28 31 33 29 27 27 25 23 24 23 22
39 40 39 38 37 35 34 36 40 42 38 34 32 29 26 24 21 20 19 19 21 23 23 22 20 20 21 23 24 25 26 29 33 31 28 28 29 29 27 25 24 23
36 40 42 42 40 36 35 36 40 41 37 32 29 25 23 22 21 20 20 20 22 24 25 24 23 22 22 23 25 25 26 29 31 28 27 29 31 30 29 28 26 25
34 38 41 41 40 37 36 38 40 38 34 30 26 24 22 22 21 21 21 22 23 25 26 26 25 24 24 24 26 26 27 29 28 26 27 31 31 29 30 32 30 25
Wind_Direction
236 235 236 237 236 234 238 244 245 243 242 237 231 227 225 230 231 227 228 230 231 233 231 233 237 238 235 233 234 237 239 242 244 246 248 252 257 261 266 270 273 277
235 236 236 238 238 235 234 240 246 246 245 242 238 233 230 232 232 230 229 230 232 235 233 232 235 237 236 234 234 236 238 241 244 246 249 254 259 264 268 271 274 278
234 235 237 238 238 237 235 237 243 245 246 246 243 238 233 232 232 231 230 230 232 235 236 234 234 236 235 232 233 235 238 241 244 248 252 255 259 263 267 272 277 279
234 235 237 238 239 239 240 240 242 243 245 245 244 239 234 231 231 231 230 231 232 233 234 235 234 236 235 231 231 233 237 241 244 249 253 256 259 263 268 273 278 280
234 234 235 237 239 240 242 242 242 243 243 244 242 238 234 231 229 228 229 230 230 230 231 232 234 235 235 233 232 232 235 239 243 247 250 253 257 262 268 272 276 280
233 234 236 238 240 241 243 245 246 246 245 243 241 237 233 232 229 227 227 228 229 229 229 230 233 235 237 236 234 234 235 238 241 245 247 250 255 261 265 269 273 279
231 234 237 238 241 243 243 242 243 246 246 244 242 239 235 232 229 227 226 226 228 230 229 231 233 235 238 238 237 236 235 237 240 242 246 249 253 257 261 266 272 277
232 234 238 240 241 243 242 236 231 234 241 243 241 240 239 235 231 229 227 225 227 229 231 232 234 237 240 241 239 237 235 237 239 241 244 247 250 255 258 264 270 278
234 232 237 241 241 240 240 237 232 233 238 241 239 238 237 232 229 230 228 226 228 231 233 234 235 237 240 243 242 240 238 238 239 241 244 246 250 254 259 265 272 280
235 232 234 239 240 239 238 238 238 238 239 239 238 237 235 230 228 230 229 228 232 235 237 239 241 241 242 244 245 243 242 241 241 243 244 247 250 254 260 268 274 283
235 232 233 236 236 236 237 236 238 241 241 240 240 240 238 234 231 230 228 229 236 241 242 242 244 246 245 246 248 247 245 245 244 245 246 248 251 254 260 268 274 280
236 232 232 233 233 232 234 235 235 237 238 239 241 241 239 238 237 235 232 232 238 251 260 259 254 252 249 248 251 252 250 248 246 247 249 250 253 256 260 266 271 276
238 236 232 231 230 229 232 234 234 235 234 234 237 237 235 236 238 238 236 234 232 241 254 258 257 256 252 249 251 253 253 252 250 249 251 253 255 258 261 265 269 273
239 240 236 232 230 229 230 232 234 237 237 236 237 237 235 232 233 236 237 237 234 235 242 248 250 251 250 250 253 253 254 256 255 253 253 255 257 259 261 265 268 272
236 238 237 233 232 232 233 235 235 236 237 238 237 238 239 238 236 239 241 241 240 239 241 245 247 249 250 251 255 255 255 259 259 257 255 256 258 259 260 263 266 270
234 234 232 230 231 233 237 240 240 237 236 237 235 235 241 245 246 247 247 246 245 245 246 246 246 249 250 251 255 258 258 258 259 258 257 257 258 259 259 261 263 268
232 232 230 227 228 232 236 239 242 241 238 236 233 232 238 245 250 253 253 253 251 249 250 252 250 250 249 250 254 258 258 257 256 256 256 256 257 258 259 259 262 267
226 226 226 226 228 234 238 239 244 246 243 237 232 231 235 241 248 254 257 256 253 250 250 252 253 253 252 251 253 256 258 258 257 255 254 254 255 257 259 259 261 266
225 223 221 223 228 236 243 246 248 248 247 243 236 233 235 240 246 252 255 255 253 251 250 251 253 255 254 254 254 256 258 258 258 255 253 253 254 256 257 258 261 265
227 224 221 223 229 238 246 252 251 246 244 243 238 233 232 237 243 250 251 250 250 250 252 253 255 255 255 255 255 257 260 259 258 256 253 253 253 254 256 257 260 264
226 224 223 225 231 238 243 249 249 243 238 237 235 232 232 234 240 246 248 249 251 252 254 257 260 260 259 257 258 261 261 260 258 255 251 251 252 252 254 256 259 263
228 229 227 227 231 236 238 241 243 239 234 234 234 234 233 232 233 240 246 250 253 254 257 261 266 270 267 264 265 267 264 262 260 254 247 246 249 249 251 253 257 263
230 232 229 226 227 231 233 236 238 236 234 235 234 233 231 228 225 231 242 252 256 258 261 266 272 277 277 274 271 268 266 264 260 254 249 249 249 247 248 250 255 261
228 230 228 226 226 228 230 233 234 233 231 229 227 228 231 232 229 227 235 249 260 262 264 270 275 278 281 280 275 270 266 263 261 259 258 255 250 245 245 246 249 256
221 223 223 225 225 224 226 229 229 228 225 223 224 227 232 239 240 234 234 246 262 267 269 272 275 275 278 279 278 275 266 260 261 264 262 257 252 248 245 243 243 249
218 218 219 219 219 220 225 228 226 224 222 223 226 228 231 239 245 245 244 250 261 268 271 273 274 273 274 277 280 278 268 258 258 263 261 258 256 253 248 243 240 242